Dobrodošli na spletni strani vremenske postaje Senovo. Vse informacije so informativnega značaja, saj vremenska postaja ni del državne mreže meteoroloških postaj. OBVESTILO: Letni količini padavin navedeni na spletni strani je potrebno prišteti 98,1 mm, zaradi izgube podatkov.


Posebna pozornost v zvezi z vremenskimi dogajanji ni potrebna.    Posebna pozornost v zvezi z vremenskimi dogajanji ni potrebna.

Pogled proti Armezu več informacij Pogled proti Armezu


Lisca več informacij Lisca


Radar strel več informacij blitzortung!


Radar padavin več informacij rain snow radar


Obiščite še:

Template documentation
and downloads

And another site



Weather Underground, zgodovina - Tekstovno

Dnevni povzetek za Avgust 1, 2017 Enote:  Angleško    Metrično   Obe
« Predhodni Dan
Naslednji Dan »
Dnevni Tedenski Mesečni Letni Po meri
  Višja: Nižja: Povprečje:
Temperatura: 95.5 °F 63 °F 78.6 °F
Točka rosišča: 72.7 °F 61.2 °F 65.5 °F
Vlažnost: 96 % 37 % 69 %
Hitrost vetra: 4.1 mph 0 mph 0.9 mph
Sunki vetra: 8.5 mph - -
Veter:- - SSE
Zračni tlak: 30.2 in 30 in -
Padavine: 0 in    
Historical Graphs
 
 
Tabelarni podarki za Avgust 1, 2017
Čas Temperatura Točka rosišča Zračni tlak Veter Hitrost vetra Sunki vetra Vlažnost Intenziteta padavin (urna)
00:02 69.1 °F 65.7 °F 30.1 in Calm     89 % 0 in
00:07 68.9 °F 65.5 °F 30.1 in Calm     89 % 0 in
00:12 68.7 °F 65.7 °F 30.1 in Calm     90 % 0 in
00:17 68.5 °F 65.5 °F 30.1 in Calm     90 % 0 in
00:22 68.5 °F 65.5 °F 30.1 in Calm     90 % 0 in
00:27 68.4 °F 64.9 °F 30.1 in Calm     89 % 0 in
00:28 68.4 °F 64.9 °F 30.1 in Calm     89 % 0 in
00:33 68.2 °F 65.1 °F 30.1 in Calm     90 % 0 in
00:38 68.2 °F 65.1 °F 30.1 in Calm     90 % 0 in
00:43 68.2 °F 65.1 °F 30.1 in Calm     90 % 0 in
00:48 68 °F 64.9 °F 30.1 in Calm     90 % 0 in
00:53 68 °F 64.9 °F 30.1 in Calm     90 % 0 in
00:58 67.8 °F 65.1 °F 30.1 in NW 0.4 mph 2.5 mph 91 % 0 in
01:03 67.8 °F 65.1 °F 30.1 in NW 0.4 mph 2.5 mph 91 % 0 in
01:08 67.6 °F 64.9 °F 30.1 in Calm     91 % 0 in
01:13 67.6 °F 64.9 °F 30.1 in Calm     91 % 0 in
01:18 67.6 °F 64.9 °F 30.1 in Calm     91 % 0 in
01:23 67.5 °F 65.1 °F 30.1 in Calm     92 % 0 in
01:28 67.5 °F 64.8 °F 30.1 in Calm     91 % 0 in
01:33 67.3 °F 64.6 °F 30.1 in Calm     91 % 0 in
01:38 67.3 °F 64.9 °F 30.1 in Calm     92 % 0 in
01:43 67.1 °F 64.8 °F 30.1 in Calm     92 % 0 in
01:48 67.1 °F 64.8 °F 30.1 in Calm     92 % 0 in
01:53 67.1 °F 64.8 °F 30.1 in Calm     92 % 0 in
01:58 66.9 °F 64.6 °F 30.1 in Calm     92 % 0 in
02:03 66.7 °F 64.2 °F 30.1 in Calm     92 % 0 in
02:08 66.7 °F 64.2 °F 30.1 in Calm     92 % 0 in
02:11 66.7 °F 64.2 °F 30.1 in Calm     92 % 0 in
02:16 66.6 °F 64.2 °F 30.1 in Calm     92 % 0 in
02:21 66.6 °F 64.2 °F 30.1 in Calm     92 % 0 in
02:26 66.4 °F 64 °F 30.1 in Calm     92 % 0 in
02:31 66.4 °F 64 °F 30.1 in Calm     92 % 0 in
02:36 66.2 °F 63.9 °F 30.1 in Calm     92 % 0 in
02:41 66.2 °F 63.9 °F 30.1 in Calm     92 % 0 in
02:46 66 °F 63.7 °F 30.1 in Calm     92 % 0 in
02:51 66 °F 63.7 °F 30.1 in Calm     92 % 0 in
02:56 65.8 °F 63.5 °F 30.1 in Calm     92 % 0 in
03:01 65.8 °F 63.5 °F 30.1 in Calm     92 % 0 in
03:06 65.7 °F 63.7 °F 30.1 in Calm     93 % 0 in
03:11 65.7 °F 63.7 °F 30.1 in Calm     93 % 0 in
03:16 65.7 °F 63.7 °F 30.1 in Calm     93 % 0 in
03:21 65.5 °F 63.3 °F 30.1 in Calm     93 % 0 in
03:26 65.5 °F 63.3 °F 30.1 in Calm     93 % 0 in
03:31 65.3 °F 63.1 °F 30.1 in Calm     93 % 0 in
03:36 65.3 °F 63.1 °F 30.1 in Calm     93 % 0 in
03:41 65.1 °F 63 °F 30.1 in Calm     93 % 0 in
03:46 65.1 °F 63 °F 30.1 in Calm     93 % 0 in
03:51 64.9 °F 63 °F 30.1 in Calm     93 % 0 in
03:56 64.8 °F 62.8 °F 30.1 in Calm     93 % 0 in
04:01 64.8 °F 62.8 °F 30.1 in Calm     93 % 0 in
04:06 64.8 °F 62.8 °F 30.1 in Calm     93 % 0 in
04:11 64.6 °F 62.4 °F 30.1 in Calm     93 % 0 in
04:16 64.6 °F 62.4 °F 30.1 in Calm     93 % 0 in
04:21 64.4 °F 62.2 °F 30.1 in Calm     93 % 0 in
04:26 64.4 °F 62.2 °F 30.1 in Calm     93 % 0 in
04:31 64.2 °F 62.4 °F 30.1 in Calm     94 % 0 in
04:36 64.2 °F 62.4 °F 30.1 in Calm     94 % 0 in
04:41 64 °F 62.2 °F 30.1 in Calm     94 % 0 in
04:46 64 °F 62.2 °F 30.1 in Calm     94 % 0 in
04:51 64 °F 62.2 °F 30.1 in Calm     94 % 0 in
04:56 63.9 °F 62.1 °F 30.1 in Calm     94 % 0 in
05:01 63.9 °F 62.1 °F 30.1 in Calm     94 % 0 in
05:06 63.7 °F 61.9 °F 30.1 in Calm     94 % 0 in
05:11 63.7 °F 61.9 °F 30.1 in Calm     94 % 0 in
05:16 63.5 °F 61.7 °F 30.1 in Calm     94 % 0 in
05:21 63.5 °F 61.7 °F 30.1 in Calm     94 % 0 in
05:26 63.5 °F 61.7 °F 30.1 in Calm     94 % 0 in
05:31 63.3 °F 61.5 °F 30.1 in Calm     94 % 0 in
05:36 63.3 °F 61.5 °F 30.1 in Calm     94 % 0 in
05:41 63.1 °F 61.3 °F 30.1 in Calm     94 % 0 in
05:46 63.3 °F 61.9 °F 30.1 in Calm     95 % 0 in
05:51 63.1 °F 61.7 °F 30.1 in Calm     95 % 0 in
05:56 63.1 °F 61.3 °F 30.1 in Calm     94 % 0 in
06:02 63 °F 61.2 °F 30.1 in Calm     94 % 0 in
06:07 63 °F 61.2 °F 30.1 in Calm     94 % 0 in
06:12 63 °F 61.2 °F 30.1 in Calm     94 % 0 in
06:17 63.1 °F 61.3 °F 30.1 in Calm     94 % 0 in
06:22 63.1 °F 61.7 °F 30.1 in Calm     95 % 0 in
06:27 63.1 °F 61.7 °F 30.1 in Calm     95 % 0 in
06:32 63.1 °F 61.7 °F 30.1 in Calm     95 % 0 in
06:37 63.3 °F 61.9 °F 30.1 in Calm     95 % 0 in
06:42 63.5 °F 62.1 °F 30.1 in Calm     95 % 0 in
06:47 63.5 °F 62.1 °F 30.1 in Calm     95 % 0 in
06:52 63.7 °F 62.2 °F 30.1 in Calm     95 % 0 in
06:57 63.9 °F 62.4 °F 30.1 in Calm     95 % 0 in
07:02 64 °F 63 °F 30.1 in Calm     96 % 0 in
07:07 64.4 °F 63 °F 30.2 in Calm     95 % 0 in
07:12 64.6 °F 63.1 °F 30.2 in Calm     95 % 0 in
07:17 64.9 °F 63.5 °F 30.2 in Calm     95 % 0 in
07:22 65.1 °F 64 °F 30.2 in Calm     96 % 0 in
07:27 65.5 °F 64.2 °F 30.2 in Calm     96 % 0 in
07:32 65.8 °F 64.8 °F 30.2 in Calm     96 % 0 in
07:37 66.2 °F 64.9 °F 30.2 in Calm     96 % 0 in
07:42 66.4 °F 65.1 °F 30.2 in Calm     96 % 0 in
07:47 66.7 °F 65.7 °F 30.2 in Calm     96 % 0 in
07:52 67.3 °F 66 °F 30.2 in Calm     96 % 0 in
07:57 67.8 °F 66.6 °F 30.2 in Calm     96 % 0 in
08:02 68.4 °F 66.9 °F 30.2 in Calm     95 % 0 in
08:07 68.9 °F 67.5 °F 30.2 in Calm     95 % 0 in
08:12 69.3 °F 67.5 °F 30.2 in Calm     94 % 0 in
08:17 69.8 °F 68 °F 30.2 in Calm     94 % 0 in
08:22 70.2 °F 68 °F 30.2 in Calm     93 % 0 in
08:27 70.7 °F 68.5 °F 30.2 in Calm     93 % 0 in
08:32 71.1 °F 68.9 °F 30.2 in Calm     93 % 0 in
08:37 71.8 °F 69.3 °F 30.2 in Calm     92 % 0 in
08:42 72.5 °F 69.6 °F 30.2 in Calm     91 % 0 in
08:47 73.4 °F 70.3 °F 30.2 in Calm     90 % 0 in
08:52 74.5 °F 71.4 °F 30.2 in Calm     90 % 0 in
08:57 75.2 °F 71.4 °F 30.2 in Calm     88 % 0 in
09:02 76.1 °F 72 °F 30.2 in Calm     87 % 0 in
09:07 77 °F 72.1 °F 30.2 in Calm     85 % 0 in
09:12 77.7 °F 72.1 °F 30.2 in Calm     83 % 0 in
09:17 78.3 °F 71.6 °F 30.2 in Calm     80 % 0 in
09:22 79 °F 71.4 °F 30.2 in Calm     78 % 0 in
09:27 79.7 °F 72.1 °F 30.2 in Calm     78 % 0 in
09:32 80.2 °F 72.3 °F 30.2 in Calm     77 % 0 in
09:37 81 °F 72.3 °F 30.2 in Calm     75 % 0 in
09:42 81.7 °F 72.7 °F 30.2 in Calm     74 % 0 in
09:47 82 °F 72.5 °F 30.2 in Calm     73 % 0 in
09:53 82.4 °F 72 °F 30.2 in Calm     71 % 0 in
09:58 83.1 °F 72 °F 30.2 in SE 0.3 mph 2.9 mph 69 % 0 in
10:03 83.5 °F 71.8 °F 30.2 in SE 1.1 mph 4.9 mph 68 % 0 in
10:08 84 °F 72 °F 30.2 in SE 1.8 mph 4.9 mph 67 % 0 in
10:13 84.4 °F 71.2 °F 30.2 in ESE 1.8 mph 3.8 mph 65 % 0 in
10:18 84.7 °F 70.7 °F 30.2 in ESE 2.2 mph 4 mph 63 % 0 in
10:23 85.1 °F 71.1 °F 30.2 in ESE 2 mph 4 mph 63 % 0 in
10:28 85.3 °F 70.3 °F 30.2 in ESE 1.6 mph 3.4 mph 61 % 0 in
10:33 85.6 °F 69.6 °F 30.2 in ESE 1 mph 3.4 mph 59 % 0 in
10:38 86 °F 70 °F 30.2 in East 0.4 mph 3.1 mph 59 % 0 in
10:43 86 °F 69.4 °F 30.2 in ESE 0.5 mph 3.6 mph 58 % 0 in
10:48 86.4 °F 68.7 °F 30.2 in SE 0.9 mph 3.6 mph 56 % 0 in
10:53 86.7 °F 68.5 °F 30.2 in ESE 1.1 mph 3.1 mph 55 % 0 in
10:55 86.9 °F 68.4 °F 30.2 in ESE 0.9 mph 3.1 mph 54 % 0 in
11:00 86.7 °F 66.9 °F 30.2 in East 1 mph 3.6 mph 52 % 0 in
11:05 87.1 °F 66.2 °F 30.2 in ESE 2 mph 4.3 mph 50 % 0 in
11:10 87.1 °F 66.7 °F 30.2 in ESE 1.7 mph 4.3 mph 51 % 0 in
11:15 87.3 °F 67.5 °F 30.2 in East 1 mph 3.6 mph 52 % 0 in
11:20 87.6 °F 67.3 °F 30.1 in ESE 1.8 mph 4.7 mph 51 % 0 in
11:25 88 °F 66.4 °F 30.1 in ESE 2.2 mph 4.7 mph 49 % 0 in
11:30 87.8 °F 66.4 °F 30.1 in SSE 1.3 mph 4 mph 49 % 0 in
11:35 87.8 °F 66.4 °F 30.1 in SW 1.5 mph 6 mph 49 % 0 in
11:40 88.2 °F 67.3 °F 30.1 in SW 1.8 mph 6 mph 50 % 0 in
11:45 88.3 °F 66.7 °F 30.1 in SSW 1.1 mph 3.6 mph 49 % 0 in
11:50 88.7 °F 67.1 °F 30.1 in South 2 mph 4.9 mph 49 % 0 in
11:55 88.7 °F 66.6 °F 30.1 in SSW 1.9 mph 4.9 mph 48 % 0 in
12:00 89.1 °F 66.2 °F 30.1 in ESE 1.2 mph 7.6 mph 47 % 0 in
12:05 89.1 °F 66.7 °F 30.1 in ESE 1.6 mph 7.6 mph 48 % 0 in
12:10 89.4 °F 67.6 °F 30.1 in ESE 1.8 mph 6 mph 49 % 0 in
12:15 89.2 °F 65.8 °F 30.1 in NNW 2.8 mph 6 mph 46 % 0 in
12:20 89.6 °F 67.3 °F 30.1 in NNW 2.6 mph 5.6 mph 48 % 0 in
12:25 89.6 °F 66.7 °F 30.1 in SE 1.2 mph 3.6 mph 47 % 0 in
12:30 89.8 °F 66.9 °F 30.1 in ENE 1.2 mph 3.6 mph 47 % 0 in
12:35 90.1 °F 67.3 °F 30.2 in ENE 1.4 mph 3.6 mph 47 % 0 in
12:40 90.1 °F 67.3 °F 30.2 in East 1.8 mph 4.3 mph 47 % 0 in
12:45 90.3 °F 66.7 °F 30.2 in ENE 2.2 mph 4.3 mph 46 % 0 in
12:50 90.5 °F 67.5 °F 30.1 in NNW 2.3 mph 4.9 mph 47 % 0 in
12:55 90.9 °F 68.5 °F 30.1 in SW 2.9 mph 5.6 mph 48 % 0 in
13:00 91 °F 67.5 °F 30.1 in SW 3.1 mph 6.3 mph 46 % 0 in
13:05 90.9 °F 67.3 °F 30.1 in WSW 3.3 mph 6.3 mph 46 % 0 in
13:08 91 °F 67.5 °F 30.1 in WSW 3.2 mph 6.3 mph 46 % 0 in
13:13 91.4 °F 67.1 °F 30.1 in SSE 2.4 mph 4.9 mph 45 % 0 in
13:18 91.6 °F 67.3 °F 30.1 in ESE 1.9 mph 4.9 mph 45 % 0 in
13:23 91.4 °F 67.1 °F 30.1 in East 2.1 mph 5.8 mph 45 % 0 in
13:28 91.6 °F 67.3 °F 30.1 in East 2.7 mph 6.5 mph 45 % 0 in
13:33 91.6 °F 66.6 °F 30.1 in ESE 2.5 mph 6.5 mph 44 % 0 in
13:38 91.6 °F 66.6 °F 30.1 in ENE 2.1 mph 5.8 mph 44 % 0 in
13:43 91.8 °F 66.7 °F 30.1 in ENE 1.9 mph 5.8 mph 44 % 0 in
13:48 91.9 °F 66.9 °F 30.1 in ESE 1.5 mph 6.5 mph 44 % 0 in
13:53 92.3 °F 66.6 °F 30.1 in ESE 2.2 mph 6.5 mph 43 % 0 in
13:58 91.9 °F 66.2 °F 30.1 in East 2.5 mph 5.8 mph 43 % 0 in
14:03 91.8 °F 66 °F 30.1 in NE 1.5 mph 4.9 mph 43 % 0 in
14:08 91.6 °F 65.8 °F 30.1 in North 2 mph 4.3 mph 43 % 0 in
14:13 91.8 °F 66 °F 30.1 in NE 2.3 mph 5.8 mph 43 % 0 in
14:18 91.8 °F 66 °F 30.1 in ENE 2.1 mph 5.8 mph 43 % 0 in
14:23 92.1 °F 66.4 °F 30.1 in ESE 2.2 mph 5.6 mph 43 % 0 in
14:28 92.5 °F 66.7 °F 30.1 in SE 2.6 mph 7.6 mph 43 % 0 in
14:33 92.8 °F 67.1 °F 30.1 in SE 3.1 mph 7.6 mph 43 % 0 in
14:38 93 °F 67.3 °F 30.1 in SE 3.2 mph 6 mph 43 % 0 in
14:43 93.2 °F 66 °F 30.1 in SE 2.7 mph 6 mph 41 % 0 in
14:48 93 °F 66.6 °F 30.1 in ESE 2.2 mph 6 mph 42 % 0 in
14:53 93.2 °F 66 °F 30.1 in ESE 3 mph 7.4 mph 41 % 0 in
14:58 93.6 °F 66.4 °F 30.1 in SE 3.1 mph 7.4 mph 41 % 0 in
15:03 93.7 °F 66.6 °F 30.1 in SE 2.4 mph 4 mph 41 % 0 in
15:08 93.7 °F 66.6 °F 30.1 in SE 2.3 mph 4.3 mph 41 % 0 in
15:13 93.7 °F 66.6 °F 30.1 in SE 2.7 mph 6.7 mph 41 % 0 in
15:18 94.1 °F 66.7 °F 30.1 in ESE 3.4 mph 6.7 mph 41 % 0 in
15:23 93.7 °F 65.8 °F 30.1 in East 2.8 mph 5.8 mph 40 % 0 in
15:28 94.1 °F 66 °F 30.1 in East 3 mph 6.3 mph 40 % 0 in
15:33 94.3 °F 66.4 °F 30.1 in ESE 3.4 mph 6.3 mph 40 % 0 in
15:38 94.1 °F 65.5 °F 30.1 in ESE 2.6 mph 5.6 mph 39 % 0 in
15:43 94.1 °F 65.5 °F 30.1 in ENE 1.7 mph 3.8 mph 39 % 0 in
15:48 94.3 °F 65.5 °F 30.1 in SE 2.4 mph 7.4 mph 39 % 0 in
15:49 94.3 °F 65.5 °F 30.1 in SE 2.4 mph 7.4 mph 39 % 0 in
15:54 94.5 °F 65.7 °F 30.1 in SSE 2.9 mph 7.4 mph 39 % 0 in
15:59 94.6 °F 65.8 °F 30.1 in South 2.4 mph 5.4 mph 39 % 0 in
16:04 94.8 °F 66 °F 30.1 in SSE 2.3 mph 4 mph 39 % 0 in
16:09 95 °F 65.5 °F 30.1 in SE 1.5 mph 5.4 mph 38 % 0 in
16:14 95.2 °F 65.7 °F 30.1 in SE 1.8 mph 6.3 mph 38 % 0 in
16:19 95.2 °F 65.7 °F 30.1 in SSE 1.8 mph 6.3 mph 38 % 0 in
16:24 95.2 °F 65.7 °F 30 in ESE 1.8 mph 4.3 mph 38 % 0 in
16:29 95.2 °F 64.8 °F 30 in East 2 mph 4.3 mph 37 % 0 in
16:34 95.4 °F 65.7 °F 30 in East 1.9 mph 5.8 mph 38 % 0 in
16:39 95.2 °F 64.8 °F 30.1 in ESE 2.1 mph 5.8 mph 37 % 0 in
16:44 95.4 °F 65.7 °F 30.1 in SE 1.5 mph 3.6 mph 38 % 0 in
16:49 95.4 °F 64.9 °F 30.1 in SE 1.7 mph 4.3 mph 37 % 0 in
16:54 95.5 °F 65.8 °F 30 in SE 2.8 mph 6.5 mph 38 % 0 in
16:59 95.4 °F 64.9 °F 30 in SSE 3.8 mph 6.5 mph 37 % 0 in
17:04 95.4 °F 64.9 °F 30 in SSE 3.3 mph 6.3 mph 37 % 0 in
17:09 95.4 °F 64.9 °F 30.1 in SE 2.3 mph 5.6 mph 37 % 0 in
17:14 95.4 °F 65.7 °F 30.1 in SE 2.3 mph 5.6 mph 38 % 0 in
17:19 95.5 °F 65.1 °F 30.1 in SE 2.7 mph 6.7 mph 37 % 0 in
17:24 95.4 °F 64.9 °F 30.1 in ESE 2.4 mph 6.7 mph 37 % 0 in
17:29 95.2 °F 65.7 °F 30.1 in SE 3.4 mph 7.6 mph 38 % 0 in
17:34 95 °F 65.5 °F 30.1 in SE 4.1 mph 7.6 mph 38 % 0 in
17:39 95 °F 65.5 °F 30.1 in SSE 3.5 mph 8.1 mph 38 % 0 in
17:44 94.8 °F 65.3 °F 30.1 in SE 3.2 mph 8.1 mph 38 % 0 in
17:49 94.5 °F 64.9 °F 30.1 in SE 2.9 mph 7.4 mph 38 % 0 in
17:54 94.5 °F 64.9 °F 30 in SSE 2.5 mph 7.4 mph 38 % 0 in
17:59 94.3 °F 64.8 °F 30 in SSE 2.4 mph 4.9 mph 38 % 0 in
18:04 93.9 °F 64.6 °F 30 in SE 2.6 mph 4.7 mph 38 % 0 in
18:09 93.6 °F 64.9 °F 30.1 in ESE 2.7 mph 5.6 mph 39 % 0 in
18:14 93 °F 64.4 °F 30.1 in SE 3.5 mph 7.4 mph 39 % 0 in
18:19 92.5 °F 63.9 °F 30.1 in SE 3.3 mph 7.4 mph 39 % 0 in
18:24 91.8 °F 63.3 °F 30.1 in SE 3 mph 5.6 mph 39 % 0 in
18:29 91.2 °F 63.5 °F 30.1 in SE 3.6 mph 6 mph 40 % 0 in
18:34 90.9 °F 63.1 °F 30.1 in ESE 3.5 mph 6 mph 40 % 0 in
18:39 90.5 °F 63.7 °F 30 in SE 3.4 mph 8.5 mph 41 % 0 in
18:44 90.1 °F 63.3 °F 30 in SSE 2.7 mph 8.5 mph 41 % 0 in
18:49 89.8 °F 63 °F 30 in SE 1.7 mph 5.6 mph 41 % 0 in
18:54 89.6 °F 62.8 °F 30 in SSE 2.2 mph 7.6 mph 41 % 0 in
18:59 89.2 °F 63.1 °F 30 in SE 2.7 mph 7.6 mph 42 % 0 in
19:04 89.1 °F 63 °F 30 in SE 2.8 mph 6 mph 42 % 0 in
19:09 88.7 °F 63.3 °F 30.1 in SE 2.5 mph 5.8 mph 43 % 0 in
19:14 88.2 °F 63.5 °F 30.1 in SE 2.1 mph 5.8 mph 44 % 0 in
19:19 87.6 °F 64.9 °F 30.1 in SE 1.2 mph 5.8 mph 47 % 0 in
19:24 87.1 °F 64.9 °F 30.1 in East 1.2 mph 3.6 mph 48 % 0 in
19:29 86.4 °F 64.9 °F 30.1 in ESE 1.5 mph 6 mph 49 % 0 in
19:34 85.8 °F 65.7 °F 30.1 in NW 1.7 mph 6 mph 51 % 0 in
19:39 85.5 °F 65.3 °F 30.1 in NW 1.9 mph 4 mph 51 % 0 in
19:44 84.9 °F 65.3 °F 30.1 in NNW 1.3 mph 3.6 mph 52 % 0 in
19:49 84.6 °F 65.5 °F 30.1 in West 0.6 mph 3.1 mph 53 % 0 in
19:54 84 °F 65.7 °F 30.1 in NNW 1 mph 3.8 mph 54 % 0 in
19:59 83.7 °F 66.4 °F 30.1 in NNW 0.8 mph 3.8 mph 56 % 0 in
20:04 83.5 °F 66 °F 30.1 in NW 0.5 mph 3.1 mph 56 % 0 in
20:09 82.8 °F 65.5 °F 30.1 in NW 1.2 mph 3.1 mph 56 % 0 in
20:14 82.2 °F 66 °F 30.1 in NW 1.6 mph 3.1 mph 58 % 0 in
20:19 82 °F 65.3 °F 30.1 in NNW 1.3 mph 3.1 mph 57 % 0 in
20:24 81.7 °F 65.5 °F 30.1 in NE 0.5 mph 3.1 mph 58 % 0 in
20:29 81.3 °F 65.7 °F 30.1 in ENE 0.8 mph 3.1 mph 59 % 0 in
20:30 81.3 °F 65.7 °F 30.1 in NE 0.8 mph 3.1 mph 59 % 0 in
20:35 81 °F 65.3 °F 30.1 in North 1.1 mph 2.9 mph 59 % 0 in
20:40 80.6 °F 65.5 °F 30.1 in NW 0.9 mph 3.1 mph 60 % 0 in
20:45 80.2 °F 66 °F 30.1 in NW 0.8 mph 3.1 mph 62 % 0 in
20:50 79.9 °F 65.7 °F 30.1 in NW 1 mph 3.6 mph 62 % 0 in
20:55 79.5 °F 65.8 °F 30.1 in NW 1 mph 3.6 mph 63 % 0 in
21:00 79.2 °F 65.8 °F 30.1 in NW 0.3 mph 1.6 mph 64 % 0 in
21:05 78.8 °F 65.7 °F 30.1 in Calm     64 % 0 in
21:10 78.3 °F 66 °F 30.1 in Calm     66 % 0 in
21:15 77.9 °F 65.7 °F 30.1 in Calm     66 % 0 in
21:20 77.4 °F 65.5 °F 30 in Calm     67 % 0 in
21:25 77 °F 65.1 °F 30 in Calm     67 % 0 in
21:30 76.6 °F 65.3 °F 30 in Calm     68 % 0 in
21:35 76.5 °F 65.5 °F 30.1 in Calm     69 % 0 in
21:40 76.1 °F 65.7 °F 30.1 in Calm     70 % 0 in
21:45 75.7 °F 65.3 °F 30.1 in Calm     70 % 0 in
21:51 75.2 °F 65.1 °F 30.1 in Calm     71 % 0 in
21:56 75 °F 65.5 °F 30.1 in Calm     72 % 0 in
22:01 74.7 °F 65.5 °F 30.1 in Calm     73 % 0 in
22:06 74.5 °F 65.3 °F 30 in Calm     73 % 0 in
22:08 74.3 °F 65.1 °F 30 in Calm     73 % 0 in
22:09 74.3 °F 65.1 °F 30 in Calm     73 % 0 in
22:10 74.1 °F 64.9 °F 30 in Calm     73 % 0 in
22:13 74.1 °F 65.3 °F 30 in Calm     74 % 0 in
22:18 73.9 °F 65.1 °F 30 in Calm     74 % 0 in
22:23 73.8 °F 64.9 °F 30.1 in Calm     74 % 0 in
22:28 73.4 °F 64.9 °F 30.1 in Calm     75 % 0 in
22:33 73 °F 64.9 °F 30.1 in Calm     76 % 0 in
22:38 73 °F 65.5 °F 30.1 in Calm     77 % 0 in
22:43 72.9 °F 64.8 °F 30.1 in Calm     76 % 0 in
22:48 72.9 °F 65.1 °F 30.1 in Calm     77 % 0 in
22:53 72.7 °F 65.5 °F 30.1 in Calm     78 % 0 in
22:58 72.5 °F 65.1 °F 30.1 in Calm     78 % 0 in
23:03 72.1 °F 64.9 °F 30.1 in Calm     78 % 0 in
23:08 72 °F 64.8 °F 30.1 in Calm     78 % 0 in
23:13 71.6 °F 64.4 °F 30.1 in Calm     78 % 0 in
23:18 71.6 °F 64.4 °F 30.1 in Calm     78 % 0 in
23:23 71.2 °F 64.4 °F 30.1 in Calm     79 % 0 in
23:28 71.1 °F 64.6 °F 30.1 in Calm     80 % 0 in
23:33 70.9 °F 64.4 °F 30.1 in Calm     80 % 0 in
23:38 70.7 °F 64.2 °F 30 in Calm     80 % 0 in
23:43 70.7 °F 64.2 °F 30 in Calm     80 % 0 in
23:48 70.5 °F 64 °F 30 in Calm     80 % 0 in
23:53 70.3 °F 63.9 °F 30.1 in Calm     80 % 0 in
23:58 70.2 °F 64 °F 30.1 in Calm     81 % 0 in
Vremenska postaja Senovo
Podatki zbrani iz Weather Underground - 3 mb

Script developed by  Jim McMurry - jmcmurry@mwt.net Adapted for the template by  Wim van der Kuil - Leuven-Template.eu

Vremenski podatki so objavljeni na:

WeatherCloud

Weather Underground

AWEKAS

HAMweather, WeatherForYou, PWS Weather

MapView

Geostik

Slovenia weather network

Oprema, ki se uporablja:

Vremenski program
Cumulus

Cumulus